| time (UTC) | temp F | wind direction | speed MPH | gust MPH | rain 1hr in | rain 24hr in | rain mn in | humidity % | barometer mb |
| 20260505210048 | 52 | 0.0 | 0.0 | 0.00 | 0.54 | 0.54 | 99 | 1008.7 | |
| 20260505202035 | 52 | 0.0 | 0.0 | 0.00 | 0.54 | 0.54 | 99 | 1008.5 | |
| 20260505194020 | 53 | 278 | 0.0 | 4.0 | 0.01 | 0.54 | 0.54 | 99 | 1007.5 |
| 20260505190107 | 53 | 306 | 4.0 | 8.0 | 0.44 | 0.54 | 0.54 | 99 | 1006.5 |
| 20260505182053 | 53 | 267 | 8.0 | 14.0 | 0.41 | 0.41 | 0.41 | 99 | 1008.1 |
| 20260505174039 | 61 | 135 | 1.0 | 2.0 | 0.02 | 0.02 | 0.02 | 90 | 1006.6 |
| 20260505170024 | 62 | 10 | 2.0 | 6.0 | 0.00 | 0.00 | 0.00 | 85 | 1005.9 |
| 20260505162111 | 65 | 20 | 3.0 | 9.0 | 0.00 | 0.00 | 0.00 | 76 | 1006.2 |
| 20260505122048 | 71 | 123 | 1.0 | 4.0 | 0.00 | 0.00 | 0.00 | 58 | 1007.9 |
| 20260505114032 | 71 | 194 | 2.0 | 6.0 | 0.00 | 0.00 | 0.00 | 59 | 1008.1 |
| 20260505102105 | 70 | 117 | 4.0 | 7.0 | 0.00 | 0.00 | 0.00 | 64 | 1008.9 |
| 20260505094050 | 68 | 135 | 5.0 | 9.0 | 0.00 | 0.00 | 0.00 | 66 | 1009.2 |
| 20260505090036 | 67 | 141 | 4.0 | 9.0 | 0.00 | 0.00 | 0.00 | 67 | 1009.5 |
| 20260505082022 | 67 | 117 | 4.0 | 7.0 | 0.00 | 0.00 | 0.00 | 72 | 1009.9 |
| 20260505074109 | 66 | 119 | 3.0 | 4.0 | 0.00 | 0.00 | 0.00 | 73 | 1010.1 |
| 20260505070054 | 62 | 58 | 3.0 | 7.0 | 0.00 | 0.00 | 0.00 | 76 | 1010.3 |
| 20260505062041 | 63 | 48 | 1.0 | 4.0 | 0.00 | 0.00 | 0.00 | 75 | 1010.5 |
| 20260505054027 | 57 | 268 | 1.0 | 4.0 | 0.00 | 0.00 | 0.00 | 89 | 1010.5 |
| 20260505050114 | 56 | 158 | 0.0 | 2.0 | 0.00 | 0.00 | 0.00 | 89 | 1010.5 |
| 20260505034046 | 55 | 269 | 1.0 | 4.0 | 0.00 | 0.00 | 0.00 | 91 | 1010.4 |
| 20260505030032 | 57 | 326 | 2.0 | 4.0 | 0.00 | 0.00 | 0.00 | 86 | 1010.7 |
| 20260505022019 | 56 | 0.0 | 0.0 | 0.00 | 0.00 | 0.00 | 85 | 1011.4 | |
| 20260505014105 | 58 | 0.0 | 2.0 | 0.00 | 0.00 | 0.00 | 81 | 1011.2 | |
| 20260505010051 | 59 | 281 | 1.0 | 2.0 | 0.00 | 0.00 | 0.00 | 79 | 1011.5 |
| 20260505002037 | 60 | 71 | 1.0 | 4.0 | 0.00 | 0.00 | 0.00 | 77 | 1012.0 |
| 20260504234022 | 60 | 0.0 | 2.0 | 0.00 | 0.00 | 0.00 | 74 | 1012.3 | |
| 20260504230109 | 60 | 87 | 1.0 | 2.0 | 0.00 | 0.00 | 0.00 | 73 | 1012.6 |
| 20260504222055 | 62 | 317 | 2.0 | 6.0 | 0.00 | 0.00 | 0.00 | 69 | 1013.0 |
| 20260504214041 | 63 | 329 | 2.0 | 6.0 | 0.00 | 0.00 | 0.00 | 67 | 1013.1 |